Weather in Galashki

Russia / Republic of Ingushetia     43°04′50″N   44°59′03″E
temp.,
°C
wind,
m/s
gust,
m/s
humid.,
%
clouds,
%
prec.,
mm/h
press.,
hPa
HPBL,
m
12 august, fri
fri1200:00+17sse33680 0.0 101249
03:00+17sse33700 0.0 101239
06:00+18s32740 0.0 101342
09:00+24n21531 0.0 1012818
12:00+27n324828 0.0 10121535
15:00+27ene115317 0.9 10111423
18:00+23ssw227542 1.3 101234
21:00+17ssw22850 2.1 101475
13 august, sat
sat1300:00+15s43820 0.9 101444
03:00+16s32660 0.9 101329
06:00+16s22670 0.0 101332
09:00+24n22510 0.0 1011634
12:00+26nne32470 0.0 10101074
15:00+27nne22460 0.0 10081174
18:00+24sw11660 0.0 100811
21:00+18s44520 0.0 101050
14 august, sun
sun1400:00+17s44420 0.0 100958
03:00+16s43440 0.0 100950
06:00+16s43550 0.0 100851
09:00+25nne22370 0.0 1006506
12:00+28n22330 0.0 1005814
15:00+29n21350 0.0 10051028
18:00+25wsw11560 0.0 100612
21:00+20s44500 0.0 100953
15 august, mon
mon1500:00+19s45410 0.0 100963
03:00+18s44420 0.0 100857
06:00+18sse33510 0.0 100940
09:00+26nne21370 0.0 1007474
12:00+29nne22340 0.0 1006831
15:00+31nne21340 0.0 10051005
18:00+26ssw11570 0.0 100611
21:00+21s56440 0.0 100973
16 august, tue
tue1600:00+20s45410 0.0 100968
03:00+19s45420 0.0 100965
06:00+19s44520 0.0 101052
09:00+28nw22350 0.0 1010526
12:00+30nnw22350 0.0 10101109
15:00+31nnw22350 0.0 10091445
18:00+26sw11570 0.0 101016
21:00+22s45530 0.0 101262